Location: Unspecified
(0.0000°N, 0.0000°E)
Time: 14:23:09
(UTC+00:00)

AO-73 - Visible Passes

Search period start: 21 January 2018 00:00
Search period end: 31 January 2018 00:00
Orbit: 584 x 664 km, 97.6° (Epoch: 20 January)

Date Brightness Start Highest point End Pass type
(mag) Time Alt. Az. Time Alt. Az. Time Alt. Az.
21 Jan ? 19:53:20 10° S 19:57:38 79° W 19:58:18 62° NW visible
22 Jan ? 20:12:05 10° S 20:16:08 41° W 20:17:11 35° WNW visible
23 Jan ? 18:56:14 10° ESE 18:58:43 15° ENE 18:58:50 15° ENE visible
23 Jan ? 20:31:16 10° SSW 20:34:39 22° W 20:36:06 19° WNW visible
24 Jan ? 19:13:31 10° SE 19:17:11 27° ENE 19:17:45 26° ENE visible
24 Jan ? 20:51:21 10° SW 20:53:09 12° WSW 20:54:58 10° WNW visible
25 Jan ? 19:31:28 10° SSE 19:35:41 50° ENE 19:36:39 41° NE visible
26 Jan ? 19:49:49 10° S 19:54:11 86° WSW 19:55:35 44° NNW visible
27 Jan ? 20:08:31 10° S 20:12:41 45° W 20:14:31 29° NW visible
28 Jan ? 18:52:59 10° ESE 18:55:17 14° ENE 18:56:11 13° ENE visible
28 Jan ? 20:27:37 10° SSW 20:31:12 25° W 20:33:27 17° WNW visible
29 Jan ? 19:10:07 10° SE 19:13:45 25° ENE 19:15:09 21° NE visible
29 Jan ? 20:47:26 10° SW 20:49:42 14° WSW 20:51:59 10° WNW visible
30 Jan ? 19:28:01 10° SSE 19:32:14 46° ENE 19:34:07 29° NNE visible
